Wind_Speed
16 6 5 7 4 10 27 32 38 37 48 58 67 69 64 64 68 73 74 73 69 66 70 62 61 67 61 58 55 52 54 56 55 55 56 55 52 53 49 48 49 44 38 38 37 35 34 33 33
10 10 4 13 13 9 12 17 28 37 44 45 51 61 60 64 64 70 75 76 75 75 69 68 65 56 55 54 57 52 54 57 55 56 56 58 51 46 46 51 52 48 44 44 42 39 39 36 38
12 10 4 3 6 13 20 21 20 19 28 35 43 42 50 63 67 69 71 73 75 72 71 72 69 70 64 59 53 55 61 59 56 53 53 52 50 48 47 48 47 49 50 49 49 49 46 41 42
17 15 13 9 8 7 8 19 28 27 29 26 25 29 41 49 52 59 65 68 67 71 73 75 75 71 73 72 64 64 60 64 67 64 60 60 61 58 60 59 57 53 52 54 54 51 49 50 46
19 17 16 17 17 15 13 12 15 19 26 31 28 39 37 39 42 44 45 50 58 64 69 76 80 78 73 76 76 67 66 64 65 73 73 69 70 70 71 70 65 62 55 53 54 53 54 52 50
23 21 16 21 21 21 22 18 18 21 25 24 24 33 42 44 45 45 46 50 51 55 60 70 74 80 81 78 78 80 76 71 68 58 64 70 71 70 70 66 65 64 60 56 55 55 55 56 54
22 23 21 17 23 26 28 22 25 26 29 28 26 27 36 38 36 39 40 42 44 49 56 62 65 73 79 83 81 79 79 80 78 75 67 59 68 73 70 70 69 68 66 65 59 56 57 60 59
18 20 22 20 22 24 28 23 31 30 30 34 34 32 35 39 38 38 40 45 45 45 47 52 63 64 69 78 82 83 82 80 81 81 81 79 62 60 70 76 73 71 70 65 63 61 60 57 58
18 20 23 25 28 25 33 31 37 31 34 38 40 38 40 42 44 44 44 43 44 47 51 53 53 59 68 69 73 83 87 86 82 83 83 84 81 71 61 69 70 73 69 66 64 63 62 57 56
21 21 24 24 25 27 35 36 38 31 40 42 48 51 52 52 54 57 59 59 57 56 56 55 57 59 60 64 72 78 79 84 93 90 86 84 80 79 77 49 55 62 63 71 69 66 64 61 59
26 26 25 28 23 23 30 30 31 36 33 43 47 52 56 59 61 63 63 65 67 64 63 66 62 63 64 65 68 68 75 84 85 94 95 88 83 79 70 71 50 52 54 57 64 71 69 65 59
28 30 28 32 29 33 29 30 39 40 43 48 51 53 55 60 64 67 70 71 71 72 73 73 76 71 71 69 70 72 72 73 80 88 90 95 91 83 68 66 62 56 51 53 54 59 66 65 62
43 35 32 32 37 38 36 38 41 47 52 52 56 61 64 65 67 71 75 76 78 78 79 81 81 80 77 79 77 74 75 75 76 76 81 87 91 91 80 60 56 48 52 52 55 51 52 58 63
44 40 40 43 40 43 43 42 45 52 56 57 63 68 68 75 79 78 81 80 83 83 86 86 85 85 82 81 83 82 79 78 80 79 77 76 81 87 87 62 47 34 42 48 48 53 52 50 54
52 47 42 43 42 49 50 47 51 58 63 68 73 76 79 81 84 84 89 91 91 91 91 91 93 92 90 89 87 86 87 84 82 82 82 78 76 76 86 86 64 62 58 51 46 46 43 44 47
59 60 48 43 50 53 56 57 60 66 73 77 79 84 84 87 88 91 94 96 99 100 101 98 97 100 99 96 97 95 91 89 88 85 81 84 81 75 76 81 77 64 65 52 47 52 43 60 55
67 66 59 47 49 53 64 69 73 77 86 93 93 91 88 86 92 96 97 100 103 105 107 108 107 104 108 106 104 103 101 97 92 92 89 86 85 83 76 82 83 82 73 59 50 50 55 57 57
67 61 64 56 50 56 71 85 84 81 85 94 99 98 93 89 87 96 105 109 110 111 113 114 115 114 112 115 115 111 110 106 102 98 96 94 91 87 85 80 90 87 72 63 45 46 47 53 60
72 70 60 67 68 70 75 91 97 94 93 100 98 93 91 89 87 89 95 102 110 114 115 118 116 119 119 119 121 120 116 114 110 105 102 100 97 94 91 86 88 93 83 75 52 49 45 47 72
79 79 73 73 75 83 82 98 102 93 91 91 93 91 87 85 84 85 87 91 96 105 109 115 121 120 121 121 123 125 124 123 119 114 110 106 103 99 95 95 91 97 88 88 60 65 63 45 53
83 81 78 74 80 90 88 101 96 94 93 94 92 87 85 85 85 86 89 91 94 98 103 107 112 116 117 119 125 127 128 126 126 122 119 115 110 107 101 99 98 96 96 96 75 72 66 80 85
86 87 83 84 85 94 97 105 100 101 99 94 92 88 85 84 85 87 90 93 96 99 103 106 109 113 117 117 123 128 131 131 130 129 126 124 120 116 110 108 104 101 106 104 91 86 89 87 74
94 92 89 94 96 99 108 109 106 105 102 94 90 85 83 84 88 93 95 96 98 100 101 104 108 112 114 115 118 126 130 134 134 133 132 129 127 124 118 113 113 111 112 115 106 97 94 101 85
96 97 98 96 104 104 115 112 111 111 107 98 91 87 87 89 91 89 88 89 90 92 94 99 104 108 112 114 115 119 125 131 136 136 137 134 133 129 126 120 118 118 115 122 119 113 96 98 92
102 106 105 113 110 116 120 117 116 116 106 99 96 95 93 90 84 78 78 78 80 83 85 88 94 101 106 110 113 115 118 124 132 137 138 140 137 135 132 128 124 123 123 125 128 122 119 114 113
106 110 111 115 115 119 118 119 121 115 103 95 94 95 90 81 73 69 67 67 69 73 77 81 85 88 95 103 109 112 113 117 123 130 135 140 142 140 137 133 130 130 130 128 134 132 129 122 123
111 112 114 119 121 125 121 124 121 114 104 98 96 91 82 74 65 61 59 59 60 63 67 72 78 82 85 90 98 108 111 112 116 122 128 133 137 142 141 138 134 133 136 136 136 139 133 133 128
113 117 121 123 131 131 125 126 122 110 99 98 94 85 75 68 62 58 55 54 55 56 58 62 68 74 78 82 86 94 102 110 112 115 122 126 131 133 137 142 141 138 138 140 141 142 142 138 134
118 128 127 126 134 137 128 124 119 109 101 97 89 79 71 66 62 58 55 54 54 55 53 56 60 64 70 75 79 84 90 98 107 112 115 120 126 128 130 132 140 143 140 143 143 145 145 143 138
123 130 132 135 136 134 135 128 121 108 103 96 87 77 70 63 60 57 54 54 54 55 53 50 54 58 62 66 71 76 80 87 95 105 113 116 118 124 126 127 127 140 145 144 145 145 148 147 143
Wind_Direction
17 8 265 272 338 240 226 232 240 234 234 233 233 231 233 239 242 235 237 237 242 245 247 246 247 243 246 249 246 248 251 252 250 251 253 255 255 256 255 250 251 256 251 254 256 255 257 256 253
360 17 345 211 272 229 224 239 243 236 241 242 240 238 239 238 242 246 246 245 249 248 244 242 240 242 245 243 244 243 250 248 247 246 246 251 253 252 255 252 249 250 251 254 258 254 254 257 257
333 327 324 298 286 257 235 236 232 235 237 243 243 240 241 243 244 247 246 247 244 242 241 241 241 239 240 244 244 244 234 237 245 247 244 244 245 244 247 250 250 249 254 254 254 256 252 253 257
323 324 306 289 273 268 269 241 229 248 240 243 233 241 237 240 241 245 246 245 244 242 238 239 241 243 241 242 244 247 243 241 235 239 236 241 245 245 248 252 249 252 252 251 252 254 257 251 253
304 308 305 299 291 274 254 247 253 255 254 251 237 242 240 241 243 244 244 247 246 244 243 240 239 240 242 242 242 240 242 244 244 246 249 249 249 249 252 255 254 254 250 250 250 250 250 252 251
295 295 293 294 300 291 280 267 259 254 255 252 246 241 247 244 245 249 249 247 248 244 242 243 243 241 241 244 243 243 242 242 242 247 249 246 247 249 251 250 252 253 251 252 251 252 252 253 251
296 292 298 291 293 300 295 297 282 277 274 268 257 244 253 256 251 250 250 251 251 251 246 241 243 244 243 241 242 242 244 244 243 243 241 246 251 249 249 250 252 252 253 256 255 253 253 252 253
336 320 313 288 282 292 299 308 295 292 282 279 280 269 266 271 263 261 262 256 253 254 253 249 245 244 244 242 241 242 242 242 243 244 244 244 242 251 255 251 251 253 254 254 254 255 256 256 256
357 347 332 322 316 309 304 312 297 299 292 289 285 278 268 271 268 260 264 262 262 261 258 253 250 248 246 243 243 242 239 239 240 241 244 245 246 246 251 252 254 256 255 257 257 256 253 255 254
358 347 341 329 316 310 305 307 302 307 299 293 291 289 285 280 274 271 269 269 267 265 262 254 253 251 249 248 246 243 242 243 240 240 242 245 247 247 247 251 255 255 257 257 255 256 255 255 251
343 344 334 340 338 334 318 309 302 301 295 289 285 284 285 283 278 276 273 271 268 266 259 255 255 250 250 250 248 246 246 244 242 241 239 240 243 246 246 244 250 260 257 257 257 255 255 255 251
338 345 341 321 328 326 315 307 310 308 290 280 280 283 283 278 276 277 275 272 270 268 264 257 259 254 250 247 248 247 246 246 245 243 242 240 240 241 243 248 244 252 258 263 256 254 254 252 253
355 327 331 316 302 306 303 310 302 295 291 280 278 278 277 273 271 270 268 267 267 267 267 262 260 258 252 247 245 245 245 245 245 244 243 241 239 240 238 236 239 245 262 262 255 251 253 252 250
343 338 319 312 312 307 299 297 291 287 292 294 284 282 278 276 270 268 264 264 262 263 262 260 259 259 254 248 245 244 244 244 244 244 241 240 238 236 238 227 224 216 265 250 253 250 243 247 248
347 339 332 321 312 306 303 304 311 301 293 293 290 285 282 276 271 269 265 263 260 259 257 256 255 254 253 251 246 245 243 241 242 243 241 239 236 232 230 233 219 220 232 240 238 243 244 245 246
341 342 329 322 306 305 299 301 307 301 298 299 292 286 280 276 269 264 262 262 260 258 257 255 252 249 248 248 247 245 243 241 237 239 240 239 235 232 225 223 222 223 238 231 246 246 245 250 244
345 345 328 321 325 305 316 313 311 297 298 299 296 292 285 279 271 261 255 253 253 252 252 252 250 247 244 243 244 245 243 241 239 234 236 237 235 231 226 220 216 214 220 219 232 243 243 253 248
341 340 341 322 316 313 313 317 315 307 300 300 298 297 291 282 274 266 259 255 250 251 249 248 247 246 245 243 238 239 240 240 239 237 233 233 232 231 227 221 216 216 211 211 222 235 239 246 253
339 337 328 331 323 320 311 318 315 312 308 301 301 296 290 284 276 269 263 261 258 253 252 249 246 245 244 244 242 237 235 237 238 236 234 231 230 229 227 221 218 214 208 214 218 213 228 240 249
342 340 334 330 326 321 315 317 313 311 307 308 303 297 292 287 282 275 269 263 259 257 256 252 249 247 245 243 243 240 237 234 233 234 234 232 230 227 225 225 217 215 209 209 208 210 222 217 226
343 335 334 326 322 323 316 318 314 315 318 313 305 301 296 291 286 280 273 266 262 259 256 254 251 248 247 246 242 240 238 235 233 232 233 232 229 227 224 223 220 214 209 205 205 205 205 214 227
338 337 329 325 322 321 319 323 321 323 320 314 309 304 298 291 284 278 273 270 265 260 256 254 253 250 247 245 242 239 238 236 234 231 230 231 229 227 225 222 221 214 210 206 203 203 203 212 220
337 335 333 329 326 320 322 323 323 324 321 316 310 305 297 291 284 280 277 273 269 265 260 256 252 251 249 246 242 240 239 236 236 233 230 229 229 228 224 222 219 217 210 208 206 206 210 215 220
337 337 331 329 330 324 327 327 328 326 324 319 313 306 300 295 291 287 282 277 272 268 263 259 255 252 250 248 244 240 239 238 235 235 232 228 227 228 226 222 219 217 214 208 209 209 208 215 224
335 336 333 335 332 328 332 330 330 328 325 321 316 310 305 301 296 289 283 278 273 270 266 261 256 252 250 248 246 243 238 238 237 235 234 231 227 226 226 224 218 217 216 212 210 213 211 217 218
335 337 336 336 337 331 333 333 331 328 325 321 316 311 308 304 298 292 286 280 274 269 265 262 258 254 250 247 245 244 242 237 236 236 235 233 231 226 225 225 221 216 216 215 211 213 217 218 220
336 337 337 337 336 336 334 334 330 329 327 324 320 314 311 307 304 299 292 285 277 270 265 261 259 256 252 248 245 243 243 240 237 234 234 234 234 231 226 224 223 220 217 216 215 215 216 220 222
336 337 337 340 337 337 338 336 331 329 327 325 322 318 315 312 309 305 298 290 283 276 270 263 258 256 254 250 246 243 240 240 238 236 233 232 233 233 231 226 223 222 219 217 217 215 216 219 223
338 338 337 337 337 338 337 335 330 331 330 327 324 323 321 319 314 310 303 296 289 282 273 267 262 257 254 250 247 244 240 238 237 236 235 232 230 231 231 229 225 223 222 218 217 217 217 218 221
336 337 337 337 337 337 337 335 331 333 330 329 328 327 325 322 316 311 304 297 292 287 282 272 264 260 256 251 247 245 243 238 235 234 233 233 231 229 229 230 226 224 223 221 218 218 218 219 220
Height
10733 10731 10730 10730 10731 10732 10735 10738 10740 10742 10743 10748 10754 10761 10768 10771 10768 10774 10774 10779 10785 10788 10793 10795 10804 10808 10810 10812 10814 10816 10816 10819 10821 10825 10825 10827 10830 10833 10836 10839 10841 10843 10845 10846 10848 10849 10850 10853 10855
10736 10733 10732 10732 10732 10732 10733 10734 10736 10738 10740 10744 10748 10756 10758 10755 10760 10762 10765 10771 10774 10779 10781 10784 10788 10790 10792 10797 10803 10807 10808 10810 10811 10815 10817 10818 10821 10824 10827 10831 10832 10835 10838 10839 10842 10843 10845 10847 10849
10735 10734 10733 10732 10731 10732 10732 10732 10733 10734 10736 10738 10743 10746 10748 10748 10750 10750 10754 10757 10761 10764 10768 10770 10774 10777 10779 10783 10786 10791 10797 10800 10803 10804 10807 10809 10811 10814 10817 10821 10823 10826 10828 10831 10834 10836 10838 10840 10843
10732 10731 10731 10730 10730 10730 10729 10730 10730 10731 10732 10731 10736 10739 10741 10739 10742 10741 10744 10745 10747 10750 10752 10754 10759 10761 10766 10770 10773 10777 10781 10784 10789 10792 10796 10799 10801 10802 10807 10811 10814 10816 10819 10822 10825 10828 10830 10833 10836
10729 10729 10728 10727 10727 10727 10727 10727 10727 10727 10726 10725 10731 10729 10731 10732 10731 10731 10733 10733 10736 10738 10739 10741 10744 10747 10750 10754 10758 10761 10766 10769 10773 10777 10781 10785 10789 10792 10795 10798 10800 10805 10809 10813 10816 10819 10822 10825 10829
10725 10725 10725 10724 10723 10722 10721 10724 10723 10720 10718 10721 10726 10724 10720 10721 10721 10722 10722 10722 10723 10723 10725 10728 10730 10733 10738 10742 10745 10748 10750 10753 10758 10763 10768 10772 10775 10779 10783 10787 10790 10793 10798 10802 10807 10810 10814 10817 10821
10720 10721 10721 10721 10720 10719 10717 10720 10718 10718 10716 10716 10719 10721 10715 10714 10716 10714 10713 10713 10713 10712 10713 10712 10715 10718 10723 10726 10729 10734 10738 10741 10744 10748 10752 10759 10764 10767 10771 10774 10778 10782 10785 10792 10798 10801 10805 10809 10812
10718 10717 10717 10716 10716 10717 10713 10714 10710 10710 10711 10707 10708 10710 10708 10704 10705 10705 10704 10703 10702 10701 10700 10701 10703 10704 10706 10710 10714 10719 10723 10726 10731 10735 10740 10746 10750 10755 10758 10763 10765 10770 10775 10781 10786 10791 10795 10799 10802
10715 10714 10713 10712 10710 10711 10706 10708 10704 10706 10703 10701 10699 10699 10698 10696 10695 10694 10692 10692 10691 10691 10690 10690 10689 10690 10692 10693 10696 10701 10705 10710 10715 10720 10725 10730 10738 10744 10748 10750 10753 10759 10762 10769 10774 10778 10782 10787 10791
10714 10712 10709 10706 10704 10705 10701 10699 10698 10699 10693 10692 10690 10686 10684 10683 10682 10680 10679 10678 10678 10678 10677 10676 10676 10676 10677 10678 10681 10683 10686 10690 10696 10702 10709 10716 10722 10728 10737 10740 10742 10747 10750 10756 10760 10765 10769 10774 10779
10711 10709 10705 10703 10700 10699 10695 10691 10689 10688 10686 10679 10674 10671 10668 10667 10665 10663 10662 10661 10660 10660 10661 10661 10660 10660 10660 10662 10664 10665 10669 10672 10676 10681 10690 10698 10706 10714 10721 10728 10732 10735 10738 10742 10748 10751 10755 10760 10766
10708 10706 10703 10696 10692 10688 10687 10682 10676 10674 10674 10668 10662 10657 10652 10649 10647 10644 10642 10641 10640 10639 10638 10640 10640 10641 10642 10644 10646 10649 10652 10654 10655 10662 10670 10680 10690 10697 10707 10714 10720 10725 10727 10730 10733 10737 10740 10745 10750
10704 10697 10693 10688 10681 10677 10674 10672 10666 10656 10652 10649 10646 10642 10636 10629 10625 10621 10618 10617 10615 10614 10615 10616 10617 10619 10620 10623 10625 10628 10632 10635 10638 10643 10651 10659 10670 10680 10691 10701 10709 10718 10720 10719 10719 10721 10726 10730 10735
10696 10691 10683 10677 10671 10664 10660 10656 10649 10640 10633 10628 10623 10618 10613 10606 10602 10596 10592 10589 10588 10588 10587 10587 10589 10592 10596 10599 10602 10605 10610 10614 10619 10623 10632 10641 10648 10661 10672 10685 10696 10707 10708 10701 10706 10707 10710 10714 10720
10685 10682 10676 10667 10661 10650 10643 10639 10632 10623 10614 10607 10599 10591 10583 10578 10572 10568 10562 10558 10556 10556 10557 10557 10559 10561 10565 10573 10576 10580 10585 10591 10596 10602 10612 10621 10629 10639 10653 10666 10678 10683 10684 10689 10693 10695 10697 10702 10707
10673 10667 10660 10656 10646 10635 10624 10619 10616 10602 10592 10583 10574 10563 10553 10545 10539 10530 10527 10524 10520 10518 10519 10523 10526 10529 10534 10538 10546 10553 10558 10565 10572 10579 10589 10598 10608 10619 10630 10644 10657 10673 10674 10678 10680 10682 10683 10686 10692
10661 10647 10640 10637 10628 10617 10607 10598 10595 10581 10567 10555 10541 10530 10518 10506 10498 10492 10486 10481 10479 10479 10480 10482 10487 10493 10499 10504 10511 10520 10528 10536 10544 10554 10563 10574 10584 10598 10609 10621 10635 10643 10650 10662 10666 10670 10672 10674 10677
10643 10636 10623 10613 10608 10598 10582 10570 10568 10558 10543 10521 10503 10491 10478 10467 10458 10451 10444 10439 10437 10436 10437 10440 10445 10452 10460 10468 10475 10484 10495 10504 10514 10524 10536 10546 10558 10572 10587 10598 10609 10621 10634 10646 10653 10656 10664 10666 10665
10624 10613 10604 10592 10581 10574 10562 10550 10531 10529 10513 10490 10470 10452 10438 10426 10417 10409 10403 10399 10396 10398 10398 10398 10403 10410 10419 10427 10439 10449 10458 10470 10481 10493 10504 10518 10530 10544 10560 10574 10585 10598 10613 10627 10635 10645 10650 10652 10650
10606 10593 10581 10574 10563 10556 10542 10527 10506 10499 10484 10459 10435 10417 10402 10389 10378 10370 10363 10358 10357 10358 10358 10360 10364 10370 10378 10386 10397 10411 10423 10433 10444 10459 10472 10486 10500 10515 10532 10546 10560 10575 10592 10605 10615 10622 10631 10631 10628
10590 10577 10566 10556 10547 10532 10521 10512 10485 10467 10448 10426 10400 10384 10368 10355 10342 10330 10322 10317 10315 10315 10316 10318 10322 10328 10336 10345 10356 10368 10383 10396 10410 10424 10438 10452 10467 10484 10501 10516 10533 10550 10568 10583 10590 10596 10600 10610 10603
10573 10562 10549 10537 10526 10513 10494 10476 10451 10429 10413 10390 10364 10349 10334 10319 10305 10296 10286 10277 10273 10274 10275 10276 10280 10285 10293 10303 10313 10326 10339 10355 10371 10387 10402 10417 10433 10449 10469 10487 10502 10521 10539 10555 10563 10573 10578 10585 10592
10557 10542 10530 10517 10501 10491 10469 10440 10420 10396 10374 10359 10336 10317 10300 10285 10269 10255 10244 10239 10233 10233 10234 10237 10241 10244 10253 10262 10273 10286 10299 10315 10330 10349 10365 10380 10397 10414 10434 10456 10473 10488 10508 10524 10538 10549 10556 10566 10570
10540 10527 10513 10499 10480 10461 10440 10408 10385 10356 10332 10315 10298 10281 10264 10247 10231 10219 10209 10200 10193 10190 10194 10197 10201 10206 10213 10221 10232 10247 10260 10272 10288 10306 10327 10344 10361 10379 10398 10420 10441 10458 10476 10491 10506 10521 10531 10543 10556
10525 10510 10490 10471 10450 10427 10398 10376 10353 10323 10302 10279 10255 10237 10222 10207 10194 10182 10172 10164 10158 10154 10154 10158 10161 10166 10174 10183 10193 10207 10221 10234 10250 10265 10284 10305 10323 10342 10362 10384 10406 10426 10441 10460 10474 10491 10502 10512 10524
10503 10487 10469 10445 10427 10411 10380 10347 10320 10298 10280 10258 10231 10208 10189 10174 10160 10150 10140 10134 10129 10125 10122 10122 10125 10131 10137 10148 10158 10168 10181 10198 10212 10227 10245 10263 10285 10307 10326 10348 10369 10390 10410 10427 10444 10459 10474 10488 10497
10480 10463 10443 10427 10407 10382 10356 10323 10293 10270 10245 10223 10203 10181 10161 10144 10132 10122 10113 10107 10103 10099 10096 10095 10095 10098 10104 10112 10123 10133 10146 10161 10176 10190 10208 10226 10245 10269 10291 10311 10333 10356 10375 10394 10411 10429 10444 10456 10474
10465 10445 10418 10400 10374 10354 10338 10306 10272 10251 10227 10200 10176 10154 10136 10120 10108 10099 10091 10083 10077 10074 10071 10070 10070 10070 10073 10081 10089 10099 10111 10125 10142 10157 10174 10192 10208 10228 10252 10276 10297 10317 10340 10359 10378 10397 10413 10426 10442
10442 10422 10404 10381 10354 10324 10304 10283 10250 10223 10199 10175 10152 10133 10115 10099 10087 10077 10069 10061 10054 10049 10048 10047 10046 10046 10047 10051 10058 10067 10079 10092 10107 10123 10138 10156 10174 10192 10212 10235 10262 10283 10304 10325 10345 10364 10382 10399 10414
10421 10399 10380 10358 10336 10304 10272 10255 10227 10203 10179 10154 10130 10113 10097 10084 10071 10060 10051 10042 10034 10028 10025 10025 10025 10023 10023 10026 10032 10040 10049 10060 10073 10087 10103 10120 10140 10161 10178 10197 10222 10248 10270 10291 10315 10332 10351 10371 10386